This is the latest recevied weather packets stored in our database for station/object W4FXD. If no packets are shown the sender has not sent any weather packets the latest 10 day(s).
| Time | Temp. | Humidity | Pressure | Rain* | Wind** | Luminosity | Snow |
|---|---|---|---|---|---|---|---|
| 1777602630 | 12.78° C | 59% | 1015.4 hPa | 0 mm | - | 0 W/m² | - |
| 1777602325 | 12.78° C | 60% | 1015.3 hPa | 0 mm | - | 0 W/m² | - |
| 1777602021 | 12.78° C | 60% | 1015.4 hPa | 0 mm | - | 0 W/m² | - |
| 1777601716 | 13.33° C | 59% | 1015.1 hPa | 0 mm | - | 0 W/m² | - |
| 1777601412 | 13.33° C | 58% | 1015.3 hPa | 0 mm | - | 0 W/m² | - |
| 1777601108 | 13.33° C | 57% | 1015.2 hPa | 0 mm | - | 0 W/m² | - |
| 1777600806 | 13.33° C | 57% | 1015.1 hPa | 0 mm | - | 0 W/m² | - |
| 1777600501 | 13.33° C | 57% | 1015.1 hPa | 0 mm | - | 0 W/m² | - |
| 1777600197 | 13.89° C | 56% | 1014.8 hPa | 0 mm | - | 0 W/m² | - |
| 1777599893 | 13.89° C | 56% | 1014.9 hPa | 0 mm | - | 0 W/m² | - |
| 1777599589 | 13.89° C | 56% | 1014.6 hPa | 0 mm | - | 0 W/m² | - |
| 1777599287 | 13.89° C | 55% | 1014.9 hPa | 0 mm | - | 0 W/m² | - |
| 1777598982 | 13.89° C | 55% | 1014.5 hPa | 0 mm | - | 0 W/m² | - |
| 1777598680 | 13.89° C | 56% | 1014.7 hPa | 0 mm | - | 0 W/m² | - |
| 1777598375 | 13.89° C | 56% | 1014.6 hPa | 0 mm | - | 0 W/m² | - |
| 1777598074 | 13.89° C | 56% | 1014.4 hPa | 0 mm | - | 0 W/m² | - |
| 1777597773 | 13.89° C | 56% | 1014.6 hPa | 0 mm | - | 0 W/m² | - |
| 1777597469 | 14.44° C | 57% | 1014.6 hPa | 0 mm | - | 0 W/m² | - |
| 1777597164 | 13.89° C | 55% | 1014.3 hPa | 0 mm | - | 0 W/m² | - |
| 1777596861 | 13.89° C | 57% | 1014.3 hPa | 0 mm | - | 0 W/m² | - |
| 1777596556 | 13.89° C | 60% | 1014.2 hPa | 0 mm | - | 0 W/m² | - |
| 1777596254 | 13.89° C | 56% | 1014.3 hPa | 0 mm | - | 0 W/m² | - |
| 1777595951 | 13.89° C | 57% | 1014.4 hPa | 0 mm | - | 0 W/m² | - |
| 1777595651 | 14.44° C | 57% | 1014.3 hPa | 0 mm | - | 0 W/m² | - |
| 1777595346 | 14.44° C | 56% | 1014.3 hPa | 0 mm | - | 0 W/m² | - |
* Rain latest hour (hover to see other rain measurements)
** Current wind speed in m/s (hover to see current wind gust speed)